EDT,Max TemperatureF,Mean TemperatureF,Min TemperatureF,Max Dew PointF,MeanDew PointF,Min DewpointF,Max Humidity, Mean Humidity, Min Humidity, Max Sea Level PressureIn, Mean Sea Level PressureIn, Min Sea Level PressureIn, Max VisibilityMiles, Mean VisibilityMiles, Min VisibilityMiles, Max Wind SpeedMPH, Mean Wind SpeedMPH, Max Gust SpeedMPH,PrecipitationIn, CloudCover, Events, WindDirDegrees
2013-4-1,41,31,21,37,25,10,93,78,50,29.96,29.76,29.58,10,7,1,22,13,33,0.13,7,Rain-Snow,282
2013-4-2,30,23,16,19,13,9,86,73,45,30.15,29.97,29.88,10,6,0,25,12,33,0.03,7,Fog-Snow,295
2013-4-3,32,24,19,19,13,10,86,65,45,30.42,30.22,30.04,10,9,2,20,12,30,0.00,6,Snow,300
2013-4-4,51,34,18,15,10,-1,78,44,13,30.38,30.21,29.97,10,10,10,13,6,21,0.00,0,,225
2013-4-5,45,36,28,21,15,7,63,44,31,30.14,29.98,29.89,10,10,10,24,10,33,0.00,3,,302
2013-4-6,48,34,19,15,9,2,72,42,15,30.33,30.22,30.10,10,10,10,15,7,23,0.00,2,,135
2013-4-7,68,54,41,41,27,14,79,40,28,30.08,29.92,29.81,10,10,10,22,15,37,0.00,3,,211
2013-4-8,68,47,30,45,35,30,100,72,29,30.10,30.02,29.87,10,6,0,15,3,26,0.00,3,Fog-Rain,208
2013-4-9,72,58,44,47,41,33,93,60,26,30.10,29.99,29.87,10,10,8,31,13,43,0.04,4,Rain-Thunderstorm,291
2013-4-10,60,50,37,54,48,38,100,95,77,29.99,29.90,29.83,10,2,0,22,5,37,1.35,8,Fog-Rain-Thunderstorm,21
2013-4-11,37,35,33,37,33,28,100,92,75,30.06,29.96,29.85,10,6,0,15,7,21,0.04,8,Fog-Rain,74
2013-4-12,48,40,33,47,38,28,100,93,70,29.86,29.71,29.59,10,5,0,17,13,31,0.56,8,Fog-Rain,159
2013-4-13,42,37,33,32,29,26,92,77,60,29.98,29.88,29.77,10,8,1,17,9,24,0.08,8,Rain-Snow,266
2013-4-14,48,38,30,30,27,25,86,70,46,30.19,30.05,29.94,10,10,6,17,9,24,0.01,7,Snow,285
2013-4-15,69,52,39,44,37,28,67,54,37,30.17,30.14,30.10,10,10,10,20,11,33,0.00,6,,172
2013-4-16,66,55,46,55,48,39,94,78,65,30.22,30.12,30.03,10,9,2,22,14,34,0.25,8,Rain,234
2013-4-17,61,48,37,41,32,27,83,58,31,30.33,30.27,30.21,10,10,10,10,6,,0.00,3,,34
2013-4-18,66,56,46,54,47,31,84,66,48,30.20,30.02,29.82,10,10,10,23,14,39,0.00,6,,163
2013-4-19,68,54,39,56,46,29,88,75,56,29.84,29.64,29.44,10,9,1,26,19,44,0.19,5,Rain,226
2013-4-20,39,33,27,28,22,16,79,63,50,30.41,30.02,29.74,10,9,2,22,12,31,0.00,7,Snow,278
2013-4-21,46,34,23,20,18,15,81,59,34,30.65,30.55,30.36,10,10,4,14,7,17,0.00,2,Snow,16
2013-4-22,55,42,28,24,21,17,69,45,24,30.59,30.49,30.39,10,10,10,21,9,36,0.00,0,,143
2013-4-23,64,48,32,32,26,23,75,47,23,30.38,30.21,30.03,10,10,10,12,8,18,0.00,0,,171
2013-4-24,60,46,33,52,39,28,89,75,54,30.04,29.87,29.70,10,8,2,29,12,43,0.18,7,Rain-Snow,235
2013-4-25,54,43,33,34,28,20,89,67,27,30.34,30.20,30.06,10,10,7,17,10,30,0.02,6,Rain,263
2013-4-26,53,41,30,34,24,16,93,55,24,30.49,30.42,30.29,10,10,10,10,6,18,0.00,1,,302
2013-4-27,66,50,35,30,26,23,70,41,22,30.45,30.36,30.25,10,10,10,8,4,,0.00,0,,130
2013-4-28,64,56,46,43,35,27,83,53,30,30.24,30.15,30.06,10,10,7,22,9,32,0.05,4,Rain,160
2013-4-29,55,50,46,49,44,37,89,77,66,30.11,30.06,30.02,10,10,10,17,12,30,0.01,8,Rain,164
2013-4-30,60,56,51,49,47,46,89,74,59,30.27,30.20,30.10,10,10,9,16,9,23,0.00,7,Rain,169